This is the latest recevied weather packets stored in our database for station/object KF4PPJ. If no packets are shown the sender has not sent any weather packets the latest 10 day(s).
| Time | Temp. | Humidity | Pressure | Rain* | Wind** | Luminosity | Snow |
|---|---|---|---|---|---|---|---|
| 1777340796 | 12.78° C | 74% | 1020.6 hPa | 0 mm | - | 13 W/m² | - |
| 1777340495 | 12.78° C | 74% | 1020.6 hPa | 0 mm | - | 12 W/m² | - |
| 1777340191 | 12.78° C | 74% | 1020.8 hPa | 0 mm | - | 13 W/m² | - |
| 1777339888 | 12.78° C | 74% | 1020.5 hPa | 0 mm | - | 20 W/m² | - |
| 1777339283 | 12.78° C | 75% | 1020.4 hPa | 0 mm | - | 21 W/m² | - |
| 1777338981 | 12.78° C | 75% | 1020.4 hPa | 0 mm | - | 23 W/m² | - |
| 1777338678 | 12.78° C | 74% | 1020.3 hPa | 0 mm | - | 29 W/m² | - |
| 1777338376 | 12.78° C | 74% | 1020.5 hPa | 0 mm | - | 25 W/m² | - |
| 1777338072 | 12.78° C | 74% | 1020.4 hPa | 0 mm | - | 22 W/m² | - |
| 1777337466 | 12.78° C | 75% | 1020.4 hPa | 0 mm | - | 50 W/m² | - |
| 1777337162 | 12.78° C | 74% | 1020.4 hPa | 0 mm | - | 52 W/m² | - |
| 1777336559 | 12.78° C | 75% | 1020.5 hPa | 0 mm | - | 78 W/m² | - |
| 1777335954 | 12.78° C | 76% | 1020.6 hPa | 0 mm | - | 52 W/m² | - |
| 1777335650 | 12.78° C | 77% | 1020.4 hPa | 0 mm | - | 55 W/m² | - |
| 1777335347 | 12.78° C | 77% | 1020.3 hPa | 0 mm | - | 46 W/m² | - |
| 1777335045 | 12.78° C | 76% | 1020.2 hPa | 0 mm | - | 43 W/m² | - |
| 1777334742 | 12.78° C | 76% | 1020.3 hPa | 0 mm | - | 34 W/m² | - |
| 1777332927 | 13.33° C | 72% | 1020.4 hPa | 0 mm | - | 88 W/m² | - |
| 1777332626 | 13.33° C | 72% | 1020.3 hPa | 0 mm | - | 146 W/m² | - |
| 1777313858 | 11.67° C | 75% | 1019.8 hPa | 0 mm | - | 158 W/m² | - |
| 1777312948 | 11.67° C | 74% | 1019.8 hPa | 0 mm | - | 131 W/m² | - |
| 1777312645 | 11.67° C | 75% | 1019.7 hPa | 0 mm | - | 175 W/m² | - |
| 1777311433 | 11.67° C | 74% | 1019.6 hPa | 0 mm | - | 108 W/m² | - |
| 1777311130 | 11.67° C | 74% | 1019.7 hPa | 0 mm | - | 95 W/m² | - |
| 1777310828 | 11.67° C | 74% | 1019.7 hPa | 0 mm | - | 110 W/m² | - |
* Rain latest hour (hover to see other rain measurements)
** Current wind speed in m/s (hover to see current wind gust speed)